| time (UTC) | temp F | wind direction | speed MPH | gust MPH | rain 1hr in | rain 24hr in | rain mn in | humidity % | barometer mb |
| 20260507185033 | 54 | 154 | 4.0 | 11.0 | 0.00 | 0.00 | 0.00 | 75 | 1014.4 |
| 20260507184532 | 54 | 140 | 5.0 | 13.0 | 0.00 | 0.00 | 0.00 | 74 | 1014.4 |
| 20260507183533 | 55 | 138 | 4.0 | 13.0 | 0.00 | 0.00 | 0.00 | 71 | 1014.2 |
| 20260507183033 | 55 | 59 | 7.0 | 13.0 | 0.00 | 0.00 | 0.00 | 71 | 1014.2 |
| 20260507182034 | 55 | 134 | 5.0 | 13.0 | 0.00 | 0.00 | 0.00 | 69 | 1014.2 |
| 20260507181533 | 55 | 154 | 7.0 | 12.0 | 0.00 | 0.00 | 0.00 | 68 | 1014.2 |
| 20260507181035 | 56 | 155 | 4.0 | 13.0 | 0.00 | 0.00 | 0.00 | 68 | 1014.2 |
| 20260507180534 | 56 | 121 | 5.0 | 13.0 | 0.00 | 0.00 | 0.00 | 67 | 1014.2 |
| 20260507180033 | 56 | 158 | 5.0 | 13.0 | 0.00 | 0.00 | 0.00 | 65 | 1014.3 |
| 20260507175540 | 56 | 155 | 5.0 | 16.0 | 0.00 | 0.00 | 0.00 | 65 | 1014.4 |
| 20260507175036 | 56 | 141 | 5.0 | 16.0 | 0.00 | 0.00 | 0.00 | 63 | 1014.3 |
| 20260507174533 | 56 | 168 | 5.0 | 11.0 | 0.00 | 0.00 | 0.00 | 64 | 1014.4 |
| 20260507174033 | 56 | 186 | 5.0 | 11.0 | 0.00 | 0.00 | 0.00 | 64 | 1014.4 |
| 20260507173533 | 56 | 204 | 3.0 | 9.0 | 0.00 | 0.00 | 0.00 | 64 | 1014.4 |
| 20260507173033 | 56 | 183 | 4.0 | 9.0 | 0.00 | 0.00 | 0.00 | 64 | 1014.3 |
| 20260507172533 | 56 | 178 | 3.0 | 12.0 | 0.00 | 0.00 | 0.00 | 64 | 1014.3 |
| 20260507172033 | 56 | 190 | 6.0 | 12.0 | 0.00 | 0.00 | 0.00 | 64 | 1014.4 |
| 20260507171533 | 56 | 196 | 5.0 | 11.0 | 0.00 | 0.00 | 0.00 | 63 | 1014.3 |
| 20260507171034 | 56 | 182 | 6.0 | 12.0 | 0.00 | 0.00 | 0.00 | 63 | 1014.3 |
| 20260507170533 | 56 | 192 | 7.0 | 12.0 | 0.00 | 0.00 | 0.00 | 63 | 1014.4 |
| 20260507165532 | 56 | 199 | 8.0 | 14.0 | 0.00 | 0.00 | 0.00 | 64 | 1014.5 |
| 20260507165033 | 56 | 193 | 6.0 | 11.0 | 0.00 | 0.00 | 0.00 | 64 | 1014.6 |
| 20260507164532 | 56 | 200 | 4.0 | 12.0 | 0.00 | 0.00 | 0.00 | 64 | 1014.6 |
| 20260507164034 | 56 | 185 | 6.0 | 12.0 | 0.00 | 0.00 | 0.00 | 63 | 1014.6 |
| 20260507163533 | 56 | 206 | 5.0 | 12.0 | 0.00 | 0.00 | 0.00 | 64 | 1014.5 |
| 20260507163032 | 56 | 217 | 5.0 | 12.0 | 0.00 | 0.00 | 0.00 | 63 | 1014.5 |
| 20260507162534 | 56 | 190 | 4.0 | 11.0 | 0.00 | 0.00 | 0.00 | 63 | 1014.5 |
| 20260507161535 | 55 | 213 | 5.0 | 9.0 | 0.00 | 0.00 | 0.00 | 63 | 1014.6 |
| 20260507161033 | 55 | 161 | 3.0 | 11.0 | 0.00 | 0.00 | 0.00 | 63 | 1014.6 |
| 20260507160535 | 55 | 196 | 6.0 | 15.0 | 0.00 | 0.00 | 0.00 | 63 | 1014.6 |
| 20260507155533 | 55 | 182 | 7.0 | 13.0 | 0.00 | 0.00 | 0.00 | 61 | 1014.6 |
| 20260507155034 | 55 | 202 | 6.0 | 14.0 | 0.00 | 0.00 | 0.00 | 61 | 1014.7 |
| 20260507154032 | 55 | 189 | 6.0 | 13.0 | 0.00 | 0.00 | 0.00 | 61 | 1014.7 |
| 20260507153534 | 56 | 171 | 7.0 | 15.0 | 0.00 | 0.00 | 0.00 | 61 | 1014.7 |
| 20260507153030 | 56 | 200 | 9.0 | 15.0 | 0.00 | 0.00 | 0.00 | 61 | 1014.8 |
| 20260507152529 | 56 | 203 | 7.0 | 13.0 | 0.00 | 0.00 | 0.00 | 62 | 1014.8 |
| 20260507152029 | 55 | 179 | 9.0 | 16.0 | 0.00 | 0.00 | 0.00 | 61 | 1014.8 |
| 20260507151529 | 55 | 202 | 6.0 | 16.0 | 0.00 | 0.00 | 0.00 | 63 | 1014.8 |
| 20260507151030 | 55 | 209 | 9.0 | 16.0 | 0.00 | 0.00 | 0.00 | 64 | 1014.8 |
| 20260507150531 | 55 | 202 | 7.0 | 18.0 | 0.00 | 0.00 | 0.00 | 64 | 1014.9 |
| 20260507145504 | 55 | 188 | 8.0 | 17.0 | 0.00 | 0.00 | 0.00 | 63 | 1014.8 |
| 20260507145004 | 55 | 172 | 10.0 | 17.0 | 0.00 | 0.00 | 0.00 | 63 | 1014.9 |
| 20260507144504 | 55 | 195 | 8.0 | 14.0 | 0.00 | 0.00 | 0.00 | 64 | 1014.9 |
| 20260507144004 | 55 | 166 | 4.0 | 11.0 | 0.00 | 0.00 | 0.00 | 64 | 1014.9 |
| 20260507143433 | 55 | 183 | 7.0 | 14.0 | 0.00 | 0.00 | 0.00 | 64 | 1014.9 |
| 20260507142933 | 55 | 196 | 10.0 | 14.0 | 0.00 | 0.00 | 0.00 | 64 | 1015.0 |
| 20260507142431 | 55 | 197 | 8.0 | 14.0 | 0.00 | 0.00 | 0.00 | 65 | 1015.0 |
| 20260507141931 | 55 | 155 | 6.0 | 19.0 | 0.00 | 0.00 | 0.00 | 65 | 1015.1 |
| 20260507141430 | 55 | 192 | 9.0 | 19.0 | 0.00 | 0.00 | 0.00 | 64 | 1015.1 |
| 20260507140930 | 55 | 172 | 6.0 | 16.0 | 0.00 | 0.00 | 0.00 | 64 | 1015.0 |
| 20260507140430 | 55 | 192 | 9.0 | 18.0 | 0.00 | 0.00 | 0.00 | 63 | 1015.0 |
| 20260507135932 | 55 | 173 | 7.0 | 18.0 | 0.00 | 0.00 | 0.00 | 62 | 1015.2 |
| 20260507134930 | 56 | 135 | 7.0 | 20.0 | 0.00 | 0.00 | 0.00 | 61 | 1015.2 |
| 20260507134431 | 56 | 176 | 12.0 | 18.0 | 0.00 | 0.00 | 0.00 | 62 | 1015.2 |
| 20260507133929 | 56 | 185 | 9.0 | 17.0 | 0.00 | 0.00 | 0.00 | 61 | 1015.2 |
| 20260507133433 | 56 | 189 | 8.0 | 18.0 | 0.00 | 0.00 | 0.00 | 61 | 1015.3 |
| 20260507132931 | 56 | 169 | 11.0 | 19.0 | 0.00 | 0.00 | 0.00 | 62 | 1015.2 |
| 20260507132431 | 56 | 168 | 11.0 | 19.0 | 0.00 | 0.00 | 0.00 | 60 | 1015.2 |
| 20260507131932 | 56 | 168 | 12.0 | 19.0 | 0.00 | 0.00 | 0.00 | 60 | 1015.2 |
| 20260507130431 | 57 | 140 | 9.0 | 20.0 | 0.00 | 0.00 | 0.00 | 61 | 1015.2 |
| 20260507125930 | 57 | 144 | 8.0 | 20.0 | 0.00 | 0.00 | 0.00 | 60 | 1015.1 |
| 20260507124931 | 57 | 200 | 10.0 | 20.0 | 0.00 | 0.00 | 0.00 | 60 | 1015.2 |
| 20260507124432 | 57 | 199 | 10.0 | 20.0 | 0.00 | 0.00 | 0.00 | 60 | 1015.2 |
| 20260507123932 | 57 | 203 | 12.0 | 20.0 | 0.00 | 0.00 | 0.00 | 60 | 1015.2 |
| 20260507122932 | 57 | 186 | 7.0 | 16.0 | 0.00 | 0.00 | 0.00 | 62 | 1015.0 |
| 20260507122430 | 57 | 235 | 9.0 | 19.0 | 0.00 | 0.00 | 0.00 | 62 | 1015.2 |
| 20260507121930 | 57 | 226 | 10.0 | 19.0 | 0.00 | 0.00 | 0.00 | 63 | 1015.2 |
| 20260507121429 | 57 | 245 | 8.0 | 15.0 | 0.00 | 0.00 | 0.00 | 62 | 1015.2 |
| 20260507120933 | 56 | 197 | 7.0 | 17.0 | 0.00 | 0.00 | 0.00 | 63 | 1015.2 |
| 20260507120430 | 56 | 188 | 9.0 | 17.0 | 0.00 | 0.00 | 0.00 | 64 | 1015.2 |
| 20260507115930 | 56 | 219 | 8.0 | 15.0 | 0.00 | 0.00 | 0.00 | 64 | 1015.3 |
| 20260507115430 | 56 | 178 | 9.0 | 16.0 | 0.00 | 0.00 | 0.00 | 64 | 1015.3 |
| 20260507114429 | 57 | 190 | 9.0 | 19.0 | 0.00 | 0.00 | 0.00 | 61 | 1015.3 |
| 20260507113931 | 56 | 154 | 6.0 | 18.0 | 0.00 | 0.00 | 0.00 | 65 | 1015.3 |
| 20260507113433 | 56 | 185 | 10.0 | 18.0 | 0.00 | 0.00 | 0.00 | 64 | 1015.2 |
| 20260507112430 | 53 | 196 | 11.0 | 17.0 | 0.00 | 0.00 | 0.00 | 71 | 1015.3 |
| 20260507111933 | 53 | 202 | 8.0 | 17.0 | 0.00 | 0.00 | 0.00 | 72 | 1015.3 |
| 20260507110931 | 52 | 227 | 5.0 | 16.0 | 0.00 | 0.00 | 0.00 | 74 | 1015.3 |
| 20260507110431 | 51 | 186 | 8.0 | 16.0 | 0.00 | 0.00 | 0.00 | 74 | 1015.5 |
| 20260507105932 | 51 | 228 | 6.0 | 16.0 | 0.00 | 0.00 | 0.00 | 75 | 1015.5 |
| 20260507105433 | 51 | 185 | 9.0 | 16.0 | 0.00 | 0.00 | 0.00 | 76 | 1015.5 |
| 20260507104934 | 51 | 228 | 6.0 | 15.0 | 0.00 | 0.00 | 0.00 | 75 | 1015.5 |
| 20260507104430 | 50 | 200 | 6.0 | 15.0 | 0.00 | 0.00 | 0.00 | 75 | 1015.6 |
| 20260507103931 | 50 | 193 | 7.0 | 12.0 | 0.00 | 0.00 | 0.00 | 76 | 1015.6 |
| 20260507103431 | 51 | 216 | 6.0 | 15.0 | 0.00 | 0.00 | 0.00 | 75 | 1015.6 |
| 20260507102931 | 50 | 166 | 9.0 | 19.0 | 0.00 | 0.00 | 0.00 | 75 | 1015.6 |
| 20260507102432 | 51 | 162 | 6.0 | 19.0 | 0.00 | 0.00 | 0.00 | 75 | 1015.6 |
| 20260507101931 | 51 | 173 | 8.0 | 14.0 | 0.00 | 0.00 | 0.00 | 75 | 1015.5 |
| 20260507101431 | 50 | 175 | 5.0 | 19.0 | 0.00 | 0.00 | 0.00 | 75 | 1015.6 |
| 20260507100931 | 51 | 193 | 9.0 | 21.0 | 0.00 | 0.00 | 0.00 | 74 | 1015.6 |
| 20260507095932 | 50 | 204 | 8.0 | 14.0 | 0.00 | 0.00 | 0.00 | 74 | 1015.7 |
| 20260507095432 | 50 | 231 | 6.0 | 19.0 | 0.00 | 0.00 | 0.00 | 75 | 1015.6 |
| 20260507094933 | 50 | 223 | 10.0 | 19.0 | 0.00 | 0.00 | 0.00 | 75 | 1015.6 |
| 20260507094432 | 49 | 197 | 11.0 | 17.0 | 0.00 | 0.00 | 0.00 | 76 | 1015.6 |
| 20260507093930 | 49 | 213 | 10.0 | 17.0 | 0.00 | 0.00 | 0.00 | 76 | 1015.6 |
| 20260507092930 | 49 | 231 | 11.0 | 16.0 | 0.00 | 0.00 | 0.00 | 77 | 1015.7 |
| 20260507092432 | 49 | 217 | 7.0 | 19.0 | 0.00 | 0.00 | 0.00 | 78 | 1015.6 |
| 20260507091930 | 49 | 162 | 8.0 | 19.0 | 0.00 | 0.00 | 0.00 | 79 | 1015.6 |
| 20260507091433 | 49 | 214 | 6.0 | 17.0 | 0.00 | 0.00 | 0.00 | 79 | 1015.5 |
| 20260507090430 | 49 | 219 | 8.0 | 15.0 | 0.00 | 0.00 | 0.00 | 79 | 1015.7 |
| 20260507085930 | 49 | 173 | 7.0 | 18.0 | 0.00 | 0.00 | 0.00 | 79 | 1015.6 |
| 20260507084931 | 49 | 196 | 7.0 | 15.0 | 0.00 | 0.00 | 0.00 | 79 | 1015.8 |
| 20260507084431 | 49 | 173 | 6.0 | 15.0 | 0.00 | 0.00 | 0.00 | 79 | 1015.8 |
| 20260507083939 | 48 | 189 | 7.0 | 15.0 | 0.00 | 0.00 | 0.00 | 80 | 1015.9 |
| 20260507083432 | 48 | 223 | 4.0 | 15.0 | 0.00 | 0.00 | 0.00 | 79 | 1015.9 |
| 20260507082930 | 48 | 192 | 10.0 | 15.0 | 0.00 | 0.00 | 0.00 | 79 | 1015.9 |
| 20260507082430 | 48 | 219 | 8.0 | 14.0 | 0.00 | 0.00 | 0.00 | 79 | 1015.9 |
| 20260507081933 | 48 | 195 | 4.0 | 17.0 | 0.00 | 0.00 | 0.00 | 78 | 1015.9 |
| 20260507081430 | 48 | 166 | 10.0 | 17.0 | 0.00 | 0.00 | 0.00 | 78 | 1015.9 |
| 20260507080932 | 48 | 171 | 9.0 | 17.0 | 0.00 | 0.00 | 0.00 | 78 | 1015.9 |
| 20260507080432 | 48 | 157 | 7.0 | 14.0 | 0.00 | 0.00 | 0.00 | 79 | 1015.8 |
| 20260507075932 | 48 | 182 | 4.0 | 12.0 | 0.00 | 0.00 | 0.00 | 79 | 1015.8 |
| 20260507075431 | 47 | 227 | 2.0 | 9.0 | 0.00 | 0.00 | 0.00 | 80 | 1015.8 |
| 20260507074932 | 47 | 182 | 4.0 | 11.0 | 0.00 | 0.00 | 0.00 | 79 | 1015.8 |
| 20260507073933 | 47 | 196 | 6.0 | 13.0 | 0.00 | 0.00 | 0.00 | 80 | 1015.8 |
| 20260507072929 | 46 | 155 | 6.0 | 13.0 | 0.00 | 0.00 | 0.00 | 80 | 1015.7 |
| 20260507072432 | 46 | 178 | 5.0 | 14.0 | 0.00 | 0.00 | 0.00 | 81 | 1015.7 |
| 20260507071930 | 46 | 185 | 4.0 | 14.0 | 0.00 | 0.00 | 0.00 | 81 | 1015.8 |
| 20260507071432 | 46 | 172 | 5.0 | 9.0 | 0.00 | 0.00 | 0.00 | 83 | 1015.7 |
| 20260507065929 | 45 | 135 | 5.0 | 13.0 | 0.00 | 0.00 | 0.00 | 85 | 1015.7 |
| 20260507065432 | 45 | 141 | 5.0 | 13.0 | 0.00 | 0.00 | 0.00 | 85 | 1015.7 |
| 20260507064931 | 44 | 169 | 5.0 | 12.0 | 0.00 | 0.00 | 0.00 | 86 | 1015.7 |
| 20260507064432 | 44 | 140 | 5.0 | 12.0 | 0.00 | 0.00 | 0.00 | 89 | 1015.7 |
| 20260507063930 | 44 | 196 | 5.0 | 12.0 | 0.00 | 0.00 | 0.00 | 89 | 1015.8 |
| 20260507063430 | 43 | 179 | 5.0 | 12.0 | 0.00 | 0.00 | 0.00 | 90 | 1015.6 |
| 20260507062931 | 43 | 189 | 2.0 | 8.0 | 0.00 | 0.00 | 0.00 | 91 | 1015.6 |
| 20260507062431 | 42 | 162 | 4.0 | 8.0 | 0.00 | 0.00 | 0.00 | 92 | 1015.6 |
| 20260507061932 | 42 | 68 | 0.0 | 5.0 | 0.00 | 0.00 | 0.00 | 93 | 1015.6 |
| 20260507061430 | 41 | 0 | 1.0 | 5.0 | 0.00 | 0.00 | 0.00 | 93 | 1015.7 |
| 20260507060932 | 41 | 0 | 1.0 | 4.0 | 0.00 | 0.00 | 0.00 | 94 | 1015.7 |
| 20260507060431 | 40 | 0 | 1.0 | 4.0 | 0.00 | 0.00 | 0.00 | 94 | 1015.6 |
| 20260507055931 | 40 | 162 | 0.0 | 5.0 | 0.00 | 0.00 | 0.00 | 94 | 1015.6 |
| 20260507054931 | 39 | 93 | 2.0 | 5.0 | 0.00 | 0.00 | 0.00 | 94 | 1015.6 |
| 20260507054432 | 38 | 237 | 1.0 | 4.0 | 0.00 | 0.00 | 0.00 | 94 | 1015.6 |
| 20260507053931 | 38 | 237 | 0.0 | 3.0 | 0.00 | 0.00 | 0.00 | 93 | 1015.5 |
| 20260507053431 | 38 | 237 | 0.0 | 4.0 | 0.00 | 0.00 | 0.00 | 93 | 1015.6 |
| 20260507052430 | 38 | 237 | 0.0 | 5.0 | 0.00 | 0.00 | 0.00 | 94 | 1015.5 |
| 20260507051931 | 37 | 237 | 1.0 | 6.0 | 0.00 | 0.00 | 0.00 | 94 | 1015.5 |
| 20260507051431 | 37 | 248 | 2.0 | 6.0 | 0.00 | 0.00 | 0.00 | 93 | 1015.5 |
| 20260507050932 | 36 | 279 | 2.0 | 5.0 | 0.00 | 0.00 | 0.00 | 93 | 1015.5 |
| 20260507045930 | 36 | 21 | 1.0 | 4.0 | 0.00 | 0.00 | 0.00 | 92 | 1015.4 |
| 20260507045429 | 36 | 343 | 0.0 | 4.0 | 0.00 | 0.00 | 0.00 | 92 | 1015.6 |
| 20260507044930 | 36 | 296 | 0.0 | 5.0 | 0.00 | 0.00 | 0.00 | 92 | 1015.6 |
| 20260507043930 | 36 | 295 | 1.0 | 5.0 | 0.00 | 0.00 | 0.00 | 92 | 1015.6 |
| 20260507042930 | 36 | 254 | 1.0 | 4.0 | 0.00 | 0.00 | 0.00 | 92 | 1015.6 |
| 20260507042430 | 36 | 254 | 0.0 | 4.0 | 0.00 | 0.00 | 0.00 | 92 | 1015.6 |
| 20260507041929 | 36 | 254 | 1.0 | 4.0 | 0.00 | 0.00 | 0.00 | 92 | 1015.4 |
| 20260507041429 | 36 | 258 | 0.0 | 4.0 | 0.00 | 0.00 | 0.00 | 92 | 1015.5 |
| 20260507040931 | 36 | 258 | 0.0 | 4.0 | 0.00 | 0.00 | 0.00 | 92 | 1015.5 |
| 20260507035931 | 36 | 176 | 0.0 | 4.0 | 0.00 | 0.00 | 0.00 | 92 | 1015.5 |
| 20260507035430 | 36 | 178 | 0.0 | 4.0 | 0.00 | 0.00 | 0.00 | 92 | 1015.5 |
| 20260507034932 | 36 | 176 | 1.0 | 4.0 | 0.00 | 0.00 | 0.00 | 92 | 1015.4 |
| 20260507034432 | 36 | 176 | 0.0 | 4.0 | 0.00 | 0.00 | 0.00 | 92 | 1015.5 |
| 20260507033431 | 36 | 178 | 1.0 | 5.0 | 0.00 | 0.00 | 0.00 | 92 | 1015.5 |
| 20260507032929 | 36 | 166 | 2.0 | 5.0 | 0.00 | 0.00 | 0.00 | 92 | 1015.5 |
| 20260507031932 | 35 | 169 | 1.0 | 4.0 | 0.00 | 0.00 | 0.00 | 91 | 1015.6 |
| 20260507031431 | 35 | 169 | 0.0 | 4.0 | 0.00 | 0.00 | 0.00 | 91 | 1015.6 |
| 20260507030930 | 35 | 169 | 0.0 | 4.0 | 0.00 | 0.00 | 0.00 | 90 | 1015.6 |
| 20260507030431 | 35 | 169 | 0.0 | 4.0 | 0.00 | 0.00 | 0.00 | 90 | 1015.6 |
| 20260507025930 | 35 | 138 | 1.0 | 3.0 | 0.00 | 0.00 | 0.00 | 90 | 1015.6 |
| 20260507025431 | 35 | 138 | 0.0 | 2.0 | 0.00 | 0.00 | 0.00 | 89 | 1015.7 |
| 20260507024931 | 35 | 138 | 0.0 | 2.0 | 0.00 | 0.00 | 0.00 | 89 | 1015.7 |
| 20260507024431 | 35 | 138 | 0.0 | 4.0 | 0.00 | 0.00 | 0.00 | 89 | 1015.6 |
| 20260507023430 | 36 | 138 | 0.0 | 4.0 | 0.00 | 0.00 | 0.00 | 89 | 1015.7 |
| 20260507022432 | 36 | 138 | 0.0 | 3.0 | 0.00 | 0.00 | 0.00 | 89 | 1015.7 |
| 20260507021931 | 36 | 138 | 0.0 | 4.0 | 0.00 | 0.00 | 0.00 | 89 | 1015.6 |
| 20260507021431 | 36 | 138 | 0.0 | 4.0 | 0.00 | 0.00 | 0.00 | 89 | 1015.7 |
| 20260507020930 | 37 | 138 | 0.0 | 2.0 | 0.00 | 0.00 | 0.00 | 89 | 1015.6 |
| 20260507020430 | 37 | 138 | 0.0 | 2.0 | 0.00 | 0.00 | 0.00 | 89 | 1015.7 |
| 20260507015931 | 37 | 138 | 0.0 | 4.0 | 0.00 | 0.00 | 0.00 | 89 | 1015.7 |
| 20260507015431 | 37 | 138 | 0.0 | 5.0 | 0.00 | 0.00 | 0.00 | 89 | 1015.7 |
| 20260507014929 | 37 | 138 | 2.0 | 5.0 | 0.00 | 0.00 | 0.00 | 89 | 1015.7 |
| 20260507014429 | 37 | 148 | 1.0 | 5.0 | 0.00 | 0.00 | 0.00 | 89 | 1015.7 |
| 20260507013931 | 37 | 173 | 2.0 | 5.0 | 0.00 | 0.00 | 0.00 | 89 | 1015.8 |
| 20260507013430 | 37 | 182 | 0.0 | 4.0 | 0.00 | 0.00 | 0.00 | 89 | 1015.8 |
| 20260507012430 | 37 | 182 | 0.0 | 5.0 | 0.00 | 0.00 | 0.00 | 88 | 1015.8 |
| 20260507011931 | 37 | 182 | 1.0 | 7.0 | 0.00 | 0.00 | 0.00 | 88 | 1015.8 |
| 20260507011431 | 37 | 179 | 1.0 | 7.0 | 0.00 | 0.00 | 0.00 | 88 | 1015.8 |
| 20260507010430 | 37 | 180 | 1.0 | 4.0 | 0.00 | 0.00 | 0.00 | 88 | 1015.8 |
| 20260507005931 | 37 | 178 | 0.0 | 4.0 | 0.00 | 0.00 | 0.00 | 88 | 1015.9 |
| 20260507005431 | 38 | 178 | 2.0 | 5.0 | 0.00 | 0.00 | 0.00 | 88 | 1015.9 |
| 20260507004932 | 38 | 186 | 1.0 | 5.0 | 0.00 | 0.00 | 0.00 | 88 | 1015.8 |
| 20260507003429 | 38 | 178 | 0.0 | 5.0 | 0.00 | 0.00 | 0.00 | 88 | 1015.8 |
| 20260507002930 | 38 | 178 | 0.0 | 8.0 | 0.00 | 0.00 | 0.00 | 88 | 1015.9 |
| 20260507002431 | 38 | 189 | 2.0 | 8.0 | 0.00 | 0.00 | 0.00 | 88 | 1015.8 |
| 20260507001430 | 38 | 172 | 4.0 | 8.0 | 0.00 | 0.00 | 0.00 | 88 | 1015.7 |
| 20260507000931 | 38 | 147 | 3.0 | 9.0 | 0.00 | 0.00 | 0.00 | 87 | 1015.8 |
| 20260507000431 | 38 | 151 | 4.0 | 9.0 | 0.00 | 0.00 | 0.00 | 87 | 1015.9 |
| 20260506235931 | 38 | 192 | 1.0 | 5.0 | 0.00 | 0.00 | 0.00 | 87 | 1015.9 |
| 20260506235429 | 38 | 196 | 2.0 | 6.0 | 0.00 | 0.00 | 0.00 | 87 | 1015.9 |
| 20260506234930 | 38 | 186 | 2.0 | 6.0 | 0.00 | 0.00 | 0.00 | 87 | 1015.9 |
| 20260506234430 | 38 | 190 | 3.0 | 6.0 | 0.00 | 0.00 | 0.00 | 86 | 1015.9 |
| 20260506233929 | 38 | 173 | 2.0 | 9.0 | 0.00 | 0.00 | 0.00 | 86 | 1015.9 |
| 20260506233431 | 38 | 179 | 3.0 | 9.0 | 0.00 | 0.00 | 0.00 | 86 | 1016.2 |
| 20260506232931 | 38 | 180 | 3.0 | 8.0 | 0.00 | 0.00 | 0.00 | 86 | 1016.1 |
| 20260506232430 | 38 | 179 | 4.0 | 8.0 | 0.00 | 0.00 | 0.00 | 86 | 1016.2 |
| 20260506231432 | 38 | 200 | 3.0 | 9.0 | 0.00 | 0.00 | 0.00 | 86 | 1016.1 |
| 20260506230931 | 38 | 206 | 3.0 | 9.0 | 0.00 | 0.00 | 0.00 | 86 | 1016.1 |
| 20260506230430 | 38 | 176 | 4.0 | 7.0 | 0.00 | 0.00 | 0.00 | 86 | 1016.1 |
| 20260506225929 | 38 | 149 | 4.0 | 7.0 | 0.00 | 0.00 | 0.00 | 85 | 1016.0 |
| 20260506224929 | 38 | 165 | 4.0 | 8.0 | 0.00 | 0.00 | 0.00 | 85 | 1016.1 |
| 20260506223930 | 38 | 140 | 3.0 | 7.0 | 0.00 | 0.00 | 0.00 | 85 | 1016.1 |
| 20260506223431 | 38 | 165 | 4.0 | 7.0 | 0.00 | 0.00 | 0.00 | 84 | 1016.0 |
| 20260506222429 | 39 | 151 | 2.0 | 7.0 | 0.00 | 0.00 | 0.00 | 84 | 1016.1 |
| 20260506221929 | 39 | 173 | 3.0 | 7.0 | 0.00 | 0.00 | 0.00 | 83 | 1016.2 |
| 20260506221429 | 39 | 168 | 2.0 | 6.0 | 0.00 | 0.00 | 0.00 | 83 | 1016.1 |
| 20260506220931 | 39 | 147 | 3.0 | 6.0 | 0.00 | 0.00 | 0.00 | 83 | 1016.2 |
| 20260506220431 | 39 | 147 | 1.0 | 6.0 | 0.00 | 0.00 | 0.00 | 82 | 1016.1 |
| 20260506215930 | 39 | 130 | 3.0 | 6.0 | 0.00 | 0.00 | 0.00 | 82 | 1016.1 |
| 20260506215430 | 39 | 137 | 3.0 | 6.0 | 0.00 | 0.00 | 0.00 | 82 | 1016.2 |
| 20260506214931 | 39 | 120 | 2.0 | 7.0 | 0.00 | 0.00 | 0.00 | 82 | 1016.1 |
| 20260506213930 | 39 | 100 | 3.0 | 8.0 | 0.00 | 0.00 | 0.00 | 82 | 1016.1 |
| 20260506213430 | 40 | 118 | 4.0 | 8.0 | 0.00 | 0.00 | 0.00 | 82 | 1016.2 |
| 20260506212930 | 40 | 134 | 4.0 | 8.0 | 0.00 | 0.00 | 0.00 | 81 | 1016.2 |
| 20260506212431 | 40 | 117 | 4.0 | 8.0 | 0.00 | 0.00 | 0.00 | 80 | 1016.2 |
| 20260506211932 | 40 | 121 | 1.0 | 6.0 | 0.00 | 0.00 | 0.00 | 80 | 1016.1 |
| 20260506211431 | 40 | 106 | 2.0 | 6.0 | 0.00 | 0.00 | 0.00 | 80 | 1016.1 |
| 20260506210929 | 40 | 114 | 2.0 | 7.0 | 0.00 | 0.00 | 0.00 | 80 | 1016.1 |
| 20260506210430 | 40 | 131 | 2.0 | 7.0 | 0.00 | 0.00 | 0.00 | 79 | 1016.1 |
| 20260506205930 | 41 | 147 | 3.0 | 7.0 | 0.00 | 0.00 | 0.00 | 79 | 1016.2 |
| 20260506205429 | 41 | 138 | 4.0 | 7.0 | 0.00 | 0.00 | 0.00 | 79 | 1016.0 |
| 20260506204430 | 41 | 166 | 3.0 | 7.0 | 0.00 | 0.00 | 0.00 | 78 | 1016.0 |
| 20260506203431 | 42 | 159 | 1.0 | 5.0 | 0.00 | 0.00 | 0.00 | 78 | 1016.1 |
| 20260506201929 | 43 | 165 | 1.0 | 4.0 | 0.00 | 0.00 | 0.00 | 77 | 1016.1 |
| 20260506201430 | 43 | 166 | 2.0 | 5.0 | 0.00 | 0.00 | 0.00 | 77 | 1016.0 |
| 20260506200930 | 43 | 168 | 2.0 | 5.0 | 0.00 | 0.00 | 0.00 | 76 | 1016.1 |
| 20260506200430 | 44 | 96 | 2.0 | 6.0 | 0.00 | 0.00 | 0.00 | 76 | 1016.0 |
| 20260506194932 | 44 | 89 | 2.0 | 5.0 | 0.00 | 0.00 | 0.00 | 75 | 1015.9 |
| 20260506193930 | 45 | 89 | 1.0 | 5.0 | 0.00 | 0.00 | 0.00 | 74 | 1015.9 |
| 20260506193430 | 45 | 82 | 2.0 | 7.0 | 0.00 | 0.00 | 0.00 | 73 | 1015.9 |
| 20260506192930 | 45 | 80 | 2.0 | 7.0 | 0.00 | 0.00 | 0.00 | 73 | 1016.0 |
| 20260506191930 | 46 | 75 | 3.0 | 7.0 | 0.00 | 0.00 | 0.00 | 72 | 1015.9 |
| 20260506191429 | 46 | 55 | 4.0 | 7.0 | 0.00 | 0.00 | 0.00 | 72 | 1015.8 |
| 20260506190929 | 46 | 73 | 2.0 | 9.0 | 0.00 | 0.00 | 0.00 | 70 | 1015.8 |
| 20260506190429 | 46 | 58 | 2.0 | 9.0 | 0.00 | 0.00 | 0.00 | 70 | 1015.7 |
| 20260506185930 | 46 | 69 | 4.0 | 8.0 | 0.00 | 0.00 | 0.00 | 70 | 1015.8 |